�������l�o���
Date,Time,MP-1(��Sv/h),MP-2(��Sv/h),MP-3(��Sv/h),MP-4(��Sv/h),MP-5(��Sv/h),MP-6(��Sv/h),MP-7(��Sv/h),MP-8(��Sv/h),����,����(m/s),���J
2023/01/25,00:00,0.561,0.815,0.512,1.049,0.719,0.323,0.582,0.558,�k��,6.7,��
2023/01/25,00:10,0.560,0.814,0.510,1.048,0.721,0.323,0.582,0.557,�k��,8.0,��
2023/01/25,00:20,0.561,0.813,0.512,1.049,0.722,0.322,0.583,0.557,�k��,7.4,��
2023/01/25,00:30,0.561,0.812,0.512,1.049,0.723,0.322,0.585,0.556,�k��,8.8,��
2023/01/25,00:40,0.562,0.813,0.512,1.046,0.721,0.323,0.586,0.557,�k��,8.5,��
2023/01/25,00:50,0.562,0.814,0.513,1.048,0.722,0.323,0.584,0.557,�k��,10.4,��
2023/01/25,01:00,0.560,0.814,0.511,1.049,0.721,0.323,0.585,0.559,�k��,9.7,��
2023/01/25,01:10,0.562,0.812,0.511,1.048,0.722,0.324,0.584,0.558,�k��,8.2,��
2023/01/25,01:20,0.561,0.814,0.512,1.048,0.722,0.323,0.585,0.558,�k�k��,8.0,��
2023/01/25,01:30,0.560,0.812,0.513,1.048,0.720,0.321,0.585,0.559,�k��,10.1,��
2023/01/25,01:40,0.560,0.814,0.511,1.049,0.722,0.322,0.584,0.556,�k��,7.7,��
2023/01/25,01:50,0.561,0.812,0.511,1.049,0.721,0.323,0.584,0.557,�k��,12.2,��
2023/01/25,02:00,0.559,0.812,0.512,1.047,0.722,0.323,0.583,0.556,�k��,8.0,��
2023/01/25,02:10,0.558,0.814,0.510,1.047,0.721,0.321,0.584,0.556,�k��,9.7,��
2023/01/25,02:20,0.560,0.813,0.510,1.048,0.718,0.322,0.585,0.556,���k��,7.1,��
2023/01/25,02:30,0.560,0.812,0.512,1.048,0.720,0.323,0.586,0.558,�k��,9.7,��
2023/01/25,02:40,0.558,0.814,0.511,1.047,0.721,0.323,0.585,0.558,�k��,11.1,��
2023/01/25,02:50,0.558,0.813,0.511,1.048,0.723,0.321,0.583,0.556,�k��,12.1,��
2023/01/25,03:00,0.558,0.814,0.510,1.046,0.721,0.322,0.584,0.558,�k��,8.0,��
2023/01/25,03:10,0.557,0.813,0.510,1.048,0.720,0.322,0.586,0.556,�k��,10.4,��
2023/01/25,03:20,0.559,0.812,0.510,1.049,0.719,0.321,0.582,0.557,�k��,8.5,��
2023/01/25,03:30,0.558,0.811,0.509,1.047,0.718,0.321,0.581,0.557,�k��,11.6,��
2023/01/25,03:40,0.559,0.812,0.510,1.045,0.719,0.321,0.581,0.556,�k�k��,9.7,��
2023/01/25,03:50,0.556,0.811,0.510,1.047,0.717,0.321,0.581,0.557,�k��,10.7,��
2023/01/25,04:00,0.558,0.813,0.509,1.046,0.717,0.322,0.583,0.556,�k��,9.7,��
2023/01/25,04:10,0.558,0.812,0.510,1.048,0.717,0.321,0.582,0.555,�k��,6.6,��
2023/01/25,04:20,0.557,0.813,0.510,1.047,0.718,0.321,0.582,0.557,�k��,8.5,��
2023/01/25,04:30,0.558,0.814,0.509,1.047,0.720,0.320,0.581,0.555,�k��,7.4,��
2023/01/25,04:40,0.559,0.812,0.509,1.045,0.718,0.321,0.581,0.556,�k��,8.3,��
2023/01/25,04:50,0.559,0.813,0.509,1.047,0.719,0.321,0.582,0.557,�k��,6.6,��
2023/01/25,05:00,0.557,0.815,0.511,1.046,0.720,0.321,0.583,0.556,�k��,6.6,��
2023/01/25,05:10,0.559,0.813,0.510,1.045,0.721,0.322,0.583,0.555,�k��,7.5,��
2023/01/25,05:20,0.559,0.813,0.510,1.044,0.721,0.322,0.584,0.556,���k��,6.3,��
2023/01/25,05:30,0.560,0.814,0.511,1.049,0.722,0.322,0.582,0.556,���k��,5.0,��
2023/01/25,05:40,0.559,0.812,0.511,1.049,0.721,0.321,0.582,0.556,���k��,2.3,��
2023/01/25,05:50,0.557,0.813,0.510,1.047,0.721,0.322,0.585,0.555,���k��,2.5,��
2023/01/25,06:00,0.558,0.812,0.511,1.048,0.720,0.321,0.582,0.556,���k��,1.5,��
2023/01/25,06:10,0.559,0.814,0.510,1.048,0.721,0.321,0.583,0.556,���쐼,1.9,��
2023/01/25,06:20,0.560,0.813,0.510,1.049,0.719,0.322,0.584,0.556,��,1.8,�L
2023/01/25,06:30,0.560,0.813,0.511,1.047,0.721,0.321,0.581,0.557,�k��,1.8,�L
2023/01/25,06:40,0.559,0.814,0.512,1.048,0.721,0.321,0.582,0.555,���k��,2.6,�L
2023/01/25,06:50,0.559,0.814,0.511,1.048,0.723,0.323,0.582,0.557,���쐼,1.7,�L
2023/01/25,07:00,0.559,0.813,0.511,1.047,0.723,0.324,0.581,0.556,��쐼,1.5,�L
2023/01/25,07:10,0.559,0.815,0.512,1.049,0.722,0.324,0.583,0.556,�쐼,1.7,�L
2023/01/25,07:20,0.561,0.813,0.512,1.049,0.721,0.325,0.583,0.556,��쐼,1.8,�L
2023/01/25,07:30,0.559,0.813,0.513,1.048,0.720,0.324,0.582,0.556,���쐼,1.6,��
2023/01/25,07:40,0.559,0.812,0.512,1.049,0.720,0.324,0.582,0.553,�쐼,1.5,��
2023/01/25,07:50,0.558,0.811,0.512,1.048,0.721,0.324,0.582,0.555,�쐼,1.9,�L
2023/01/25,08:00,0.558,0.811,0.510,1.047,0.719,0.324,0.582,0.555,��쐼,1.9,�L
2023/01/25,08:10,0.558,0.810,0.512,1.048,0.719,0.324,0.582,0.555,�쐼,1.8,�L
2023/01/25,08:20,0.559,0.809,0.511,1.047,0.717,0.324,0.582,0.554,��쐼,1.8,�L
2023/01/25,08:30,0.557,0.807,0.512,1.045,0.717,0.324,0.580,0.553,��쐼,2.2,�L
2023/01/25,08:40,0.557,0.810,0.511,1.047,0.716,0.324,0.581,0.554,��,2.0,��
2023/01/25,08:50,0.558,0.810,0.509,1.043,0.715,0.321,0.581,0.553,��쓌,1.6,��
2023/01/25,09:00,0.557,0.809,0.508,1.045,0.715,0.322,0.581,0.555,��,1.4,�L
2023/01/25,09:10,0.557,0.808,0.510,1.044,0.713,0.323,0.581,0.554,�쐼,0.8,�L
2023/01/25,09:20,0.556,0.808,0.508,1.046,0.711,0.323,0.581,0.553,��쐼,1.6,�L
2023/01/25,09:30,0.557,0.807,0.507,1.043,0.712,0.322,0.581,0.552,�쐼,2.2,��
2023/01/25,09:40,0.557,0.806,0.508,1.043,0.712,0.323,0.582,0.553,��,1.5,��
2023/01/25,09:50,0.555,0.807,0.505,1.042,0.712,0.321,0.580,0.555,�k�k��,3.1,��
2023/01/25,10:00,0.556,0.807,0.506,1.043,0.712,0.321,0.583,0.554,�k��,2.4,��
2023/01/25,10:10,0.556,0.807,0.506,1.045,0.713,0.321,0.582,0.553,��,4.7,��
2023/01/25,10:20,0.557,0.807,0.504,1.039,0.713,0.320,0.582,0.554,��,7.1,��
2023/01/25,10:30,0.558,0.808,0.507,1.044,0.714,0.319,0.581,0.554,���k��,7.5,��
2023/01/25,10:40,0.557,0.811,0.507,1.044,0.711,0.321,0.583,0.553,��,7.2,��
2023/01/25,10:50,0.558,0.807,0.505,1.040,0.711,0.320,0.582,0.554,��,6.3,��
2023/01/25,11:00,0.558,0.808,0.508,1.043,0.713,0.318,0.583,0.554,���쐼,6.0,��
2023/01/25,11:10,0.559,0.808,0.508,1.043,0.712,0.321,0.581,0.554,�k��,4.4,��
2023/01/25,11:20,0.559,0.809,0.507,1.043,0.712,0.320,0.583,0.555,���k��,4.6,��
2023/01/25,11:30,0.560,0.810,0.510,1.043,0.712,0.319,0.583,0.553,���k��,4.5,��
2023/01/25,11:40,0.558,0.808,0.509,1.044,0.714,0.321,0.583,0.553,���k��,6.6,��
2023/01/25,11:50,0.557,0.809,0.507,1.045,0.715,0.321,0.583,0.554,���k��,8.6,�L
2023/01/25,12:00,0.559,0.810,0.507,1.044,0.714,0.321,0.582,0.555,���k��,6.7,�L
2023/01/25,12:10,0.559,0.810,0.508,1.044,0.712,0.319,0.580,0.556,��,5.2,��
2023/01/25,12:20,0.559,0.814,0.507,1.045,0.715,0.318,0.580,0.555,���k��,5.8,�L
2023/01/25,12:30,0.560,0.811,0.509,1.043,0.714,0.319,0.580,0.554,���k��,3.6,��
2023/01/25,12:40,0.560,0.810,0.508,1.044,0.715,0.321,0.580,0.555,��,4.1,��
2023/01/25,12:50,0.559,0.809,0.509,1.043,0.714,0.321,0.582,0.553,��,10.8,��
2023/01/25,13:00,0.560,0.810,0.509,1.043,0.716,0.321,0.584,0.554,��,7.5,��
2023/01/25,13:10,0.562,0.809,0.510,1.046,0.716,0.320,0.584,0.555,��,9.9,��
2023/01/25,13:20,0.560,0.811,0.508,1.045,0.717,0.321,0.583,0.556,��,8.3,��
2023/01/25,13:30,0.560,0.812,0.510,1.044,0.716,0.321,0.584,0.555,��,8.6,��
2023/01/25,13:40,0.562,0.810,0.511,1.043,0.716,0.321,0.584,0.555,��,8.8,��
2023/01/25,13:50,0.560,0.811,0.508,1.044,0.716,0.320,0.584,0.556,��,10.2,��
2023/01/25,14:00,0.561,0.810,0.508,1.044,0.715,0.320,0.583,0.555,��,11.0,��
2023/01/25,14:10,0.559,0.812,0.509,1.046,0.714,0.321,0.584,0.555,��,9.7,��
2023/01/25,14:20,0.564,0.812,0.511,1.045,0.713,0.321,0.582,0.557,��,11.5,��
2023/01/25,14:30,0.561,0.810,0.511,1.046,0.713,0.321,0.581,0.557,��,9.4,��
2023/01/25,14:40,0.561,0.812,0.511,1.044,0.715,0.321,0.582,0.556,��,9.9,��
2023/01/25,14:50,0.562,0.811,0.510,1.045,0.715,0.321,0.580,0.557,��,10.2,��
2023/01/25,15:00,0.562,0.813,0.510,1.043,0.715,0.321,0.579,0.557,��,9.1,��
2023/01/25,15:10,0.562,0.810,0.510,1.044,0.712,0.322,0.582,0.556,��,11.5,��
2023/01/25,15:20,0.561,0.812,0.510,1.043,0.716,0.320,0.580,0.556,��,11.6,��
2023/01/25,15:30,0.560,0.810,0.509,1.045,0.716,0.321,0.581,0.556,��,8.9,��
2023/01/25,15:40,0.559,0.812,0.510,1.047,0.718,0.320,0.580,0.556,��,9.4,��
2023/01/25,15:50,0.561,0.811,0.509,1.046,0.717,0.322,0.581,0.556,���k��,9.7,��
2023/01/25,16:00,0.560,0.810,0.508,1.048,0.715,0.319,0.580,0.555,���k��,10.1,��
2023/01/25,16:10,0.560,0.814,0.510,1.047,0.720,0.321,0.580,0.556,���k��,8.5,��
2023/01/25,16:20,0.560,0.813,0.510,1.049,0.717,0.320,0.580,0.558,���k��,13.2,��
2023/01/25,16:30,0.560,0.814,0.508,1.047,0.717,0.319,0.578,0.557,���k��,10.2,��
2023/01/25,16:40,0.559,0.813,0.509,1.044,0.719,0.321,0.580,0.556,���k��,12.3,��
2023/01/25,16:50,0.558,0.811,0.509,1.046,0.714,0.318,0.581,0.555,��,8.3,��
2023/01/25,17:00,0.557,0.812,0.510,1.047,0.715,0.318,0.579,0.556,��,7.4,��
2023/01/25,17:10,0.556,0.810,0.510,1.045,0.714,0.320,0.578,0.556,��,5.8,��
2023/01/25,17:20,0.557,0.811,0.508,1.043,0.713,0.319,0.580,0.555,���k��,8.5,��
2023/01/25,17:30,0.558,0.809,0.508,1.045,0.715,0.319,0.581,0.557,���k��,11.6,��
2023/01/25,17:40,0.558,0.810,0.509,1.043,0.714,0.319,0.582,0.556,���k��,10.7,��
2023/01/25,17:50,0.559,0.810,0.508,1.046,0.717,0.318,0.581,0.557,���k��,9.3,��
2023/01/25,18:00,0.558,0.810,0.507,1.042,0.714,0.318,0.581,0.558,���k��,7.1,��
2023/01/25,18:10,0.556,0.811,0.507,1.044,0.713,0.318,0.580,0.557,���k��,6.1,��
2023/01/25,18:20,0.558,0.809,0.508,1.045,0.713,0.319,0.582,0.555,���k��,6.9,��
2023/01/25,18:30,0.556,0.810,0.508,1.047,0.714,0.320,0.583,0.557,���k��,6.9,��
2023/01/25,18:40,0.557,0.812,0.510,1.046,0.713,0.321,0.583,0.555,���k��,9.1,��
2023/01/25,18:50,0.558,0.813,0.510,1.045,0.714,0.320,0.584,0.555,���k��,5.5,��
2023/01/25,19:00,0.558,0.813,0.510,1.044,0.715,0.321,0.583,0.557,���k��,6.0,��
2023/01/25,19:10,0.557,0.811,0.509,1.046,0.714,0.320,0.583,0.556,���k��,4.4,��
2023/01/25,19:20,0.557,0.815,0.512,1.047,0.715,0.321,0.585,0.555,�k��,4.5,��
2023/01/25,19:30,0.559,0.813,0.511,1.047,0.716,0.321,0.582,0.556,�k��,3.1,��
2023/01/25,19:40,0.558,0.811,0.511,1.048,0.717,0.321,0.583,0.555,���k��,1.6,��
2023/01/25,19:50,0.557,0.812,0.509,1.046,0.717,0.320,0.583,0.556,���k��,2.2,��
2023/01/25,20:00,0.558,0.812,0.509,1.046,0.717,0.321,0.583,0.556,��,1.5,��
2023/01/25,20:10,0.557,0.812,0.510,1.045,0.717,0.319,0.581,0.555,-,CALM,��
2023/01/25,20:20,0.558,0.813,0.512,1.042,0.718,0.320,0.582,0.555,�k�k��,1.4,��
2023/01/25,20:30,0.559,0.812,0.509,1.046,0.716,0.320,0.582,0.555,���쓌,0.8,��
2023/01/25,20:40,0.558,0.813,0.509,1.046,0.715,0.321,0.583,0.555,�k�k��,0.8,��
2023/01/25,20:50,0.558,0.813,0.511,1.045,0.717,0.320,0.582,0.556,-,CALM,��
2023/01/25,21:00,0.557,0.813,0.511,1.045,0.716,0.320,0.583,0.555,���k��,1.0,��
2023/01/25,21:10,0.559,0.812,0.510,1.046,0.719,0.320,0.581,0.555,�k�k��,2.3,��
2023/01/25,21:20,0.557,0.810,0.509,1.046,0.718,0.321,0.582,0.556,-,CALM,��
2023/01/25,21:30,0.558,0.811,0.510,1.046,0.717,0.321,0.584,0.555,��,1.5,��
2023/01/25,21:40,0.557,0.811,0.509,1.046,0.718,0.321,0.582,0.555,��쐼,1.9,��
2023/01/25,21:50,0.557,0.812,0.509,1.044,0.716,0.320,0.582,0.554,��,2.8,��
2023/01/25,22:00,0.557,0.812,0.508,1.046,0.715,0.321,0.581,0.553,��,3.2,��
2023/01/25,22:10,0.560,0.811,0.510,1.044,0.717,0.319,0.581,0.554,��쐼,1.8,��
2023/01/25,22:20,0.559,0.813,0.509,1.046,0.717,0.320,0.581,0.555,��쓌,3.4,��
2023/01/25,22:30,0.557,0.813,0.508,1.044,0.713,0.319,0.581,0.555,��쓌,2.8,��
2023/01/25,22:40,0.558,0.811,0.510,1.047,0.714,0.320,0.583,0.553,��,2.5,��
2023/01/25,22:50,0.558,0.813,0.509,1.045,0.715,0.322,0.580,0.555,��쐼,2.3,��
2023/01/25,23:00,0.559,0.810,0.510,1.045,0.715,0.319,0.582,0.553,��,3.2,��
2023/01/25,23:10,0.556,0.811,0.510,1.043,0.716,0.321,0.581,0.552,��,3.5,��
2023/01/25,23:20,0.558,0.810,0.509,1.046,0.715,0.320,0.583,0.554,��쓌,3.9,��
2023/01/25,23:30,0.556,0.809,0.510,1.048,0.717,0.321,0.582,0.554,��쓌,3.4,��
2023/01/25,23:40,0.558,0.808,0.510,1.047,0.715,0.320,0.581,0.555,��쐼,2.7,��
2023/01/25,23:50,0.556,0.812,0.510,1.045,0.715,0.318,0.583,0.555,��쐼,3.6,��
